OneWeb SL0064

operational
NORAD ID: 45433 Int'l Des: 2020-020 Owner: ONEWEB Country: UK Constellation: oneweb
LEOCIRCULARPOLARONEWEB_TYPE

关于 OneWeb SL0064

正在加载描述...

实时位置

正在加载3D地球...

即将过境

高度历史

Altitude vs Time

uPlot chart will show altitude changes over time

两行轨道根数

1 45433U 20020K 26034.51374066 -.00000434 00000-0 -12601-2 0 9995
2 45433 87.8814 47.6697 0001848 96.5815 263.5523 13.11415329285169
Epoch: Feb 3, 2026 • Age: 20 hours

当前状态

高度 1245.9 km
速度 7.23 km/s
星下点 -72.41°S, 144.78°E
发射日期 Mar 21, 2020
运行时间 5.8 years
类型 internet

技术详情

分类 Payload
质量 148.00 kg
干质量 140.00 kg
总质量 148.00 kg
长度 1.30 m
直径 1.00 m
跨度 5.00 m
形状 Trapezoid+2 pan
制造商 ONEWUS
平台类型 ARROW
阶段状态 In Orbit
所有者/国家 ONEWEB/UK

大型星座

Loading constellations...